{"data":{"norad_id":67153,"epoch":"2026-05-25T04:00:03.998880Z","epoch_age_seconds":57657,"freshness":"FRESH","line1":"1 67153U 25301W   26145.16671295 -.00000151  00000+0  93246-5 0  9994","line2":"2 67153  51.8997  61.7920 0001851  35.9517 188.5251 14.81222884  5479","mean_motion":14.81222884,"eccentricity":0.0001851,"inclination_deg":51.8997,"raan_deg":61.792,"arg_perigee_deg":35.9517,"mean_anomaly_deg":188.5251,"bstar":9.3246e-6,"rev_number":547,"period_min":97.21696954285,"perigee_km":624.17037313666,"apogee_km":626.76310724128,"semimajor_km":7003.603740189,"source":"CELESTRAK","updated_at":"2026-05-25T13:38:06.778494Z"}}